Regional Weather Roundup
Issued by NWS Wakefield, VA

Home | Current Version | Previous Version | Text Only | Print | Product List | Glossary Off
Versions: 1 2 3 4 5 6 7 8 9 10 11 12 13 14 15 16 17 18 19 20 21 22 23 24 25

000
ASUS41 KAKQ 302215
RWRAKQ

REGIONAL WEATHER ROUNDUP
NATIONAL WEATHER SERVICE WAKEFIELD VA
600 PM EDT THU JUL 30 2015

Note: "fair" indicates few or no clouds below 12,000 feet with no
significant weather and/or obstructions to visibility. * = Denotes
station may not report precipitation (e.g., rain,snow,etc.),
thunder or fog.

VAZ042-051-052>054-056-302300-
NORTHERN VIRGINIA

CITY           SKY/WX    TMP DP  RH WIND       PRES   REMARKS
WASH NATIONAL  PTSUNNY   84  76  76 S9        29.86F
DULLES         PTSUNNY   85  74  69 S3        29.86S
FORT BELVOIR   MOSUNNY   82  74  78 S5        29.86F
QUANTICO       PTSUNNY   81  73  78 SW6       29.84F
FREDERICKSBRG* PTSUNNY   82  80  94 E3        29.86F
STAFFORD*      PTSUNNY   80  73  78 S5        29.90F
WARRENTON      CLOUDY    81  79  92 CALM      29.86F
CULPEPER*      CLOUDY    80  75  84 CALM      29.88S
MANASSAS*      PTSUNNY   82  77  83 S5        29.86
LEESBURG*      PTSUNNY   88  77  70 CALM      29.87S HX 100
WINCHESTER     MOSUNNY   90  55  31 NW9       29.89R
FRONT ROYAL*   FAIR      86  75  70 CALM      29.88R HX  95
LURAY*         FAIR      91  68  46 N12       29.89R HX  95
$$

VAZ048-049-060>072-079>083-302300-
CENTRAL AND SOUTH CENTRAL VIRGINIA

CITY           SKY/WX    TMP DP  RH WIND       PRES   REMARKS
RICHMOND       CLOUDY    89  74  60 S9        29.85F HX  98
CHESTERFIELD*  FAIR      88  68  51 SW6       29.87F
PETERSBURG*    CLOUDY    87  82  85 CALM      29.87S HX 105
HANOVER        CLOUDY    88  74  63 SW9       29.87F HX  96
TAPPAHANNOCK*  TSTM      76  72  88 N9G18     29.90R VSB 3/4
QUINTON*       FAIR      88  78  71 CALM      29.85F HX 101
CHARLOTTSVILLE TSTM      75  72  90 NE10G23   29.91R VSB 1/2
GORDONSVILLE*  MOCLDY    82  79  89 NE3       29.88R
ORANGE*        PTSUNNY   82  77  83 CALM      29.89R THUNDER
LOUISA*        PTSUNNY   84  77  79 SE3       29.86R
BUMPASS*       FAIR      82  76  82 E3        29.87S
FARMVILLE*     MOSUNNY   87  73  63 S7        29.86S
CREWE*         FAIR     N/A N/A N/A CALM      29.87S
FORT PICKETT*  FAIR      85  74  70 CALM      29.88S
CHASE CITY*    FAIR      89  79  73 SW3       29.88S HX 104
CLARKSVILLE*   FAIR      88  73  62 SW5       29.87F HX  96
SOUTH HILL*    CLOUDY    86  77  75 CALM      29.93S HX  98
LAWRENCEVILLE* FAIR      90  75  62 CALM      29.86F HX 100
EMPORIA*       PTSUNNY   88  75  66 CALM      29.87F HX  97
$$

VAZ088>098-302300-
SOUTHEAST VIRGINIA

CITY           SKY/WX    TMP DP  RH WIND       PRES   REMARKS
NORFOLK        MOSUNNY   91  72  53 N6        29.85S HX  98
VIRGINIA BEACH PTSUNNY   92  75  57 S10       29.85S HX 103
NORFOLK NAVAL  PTSUNNY   89  73  59 CALM      29.87S HX  97
WEST POINT*    MOSUNNY   91  72  55 CALM      29.86F HX  98
SALUDA*        FAIR      86  75  70 S3        29.86F HX  95
NEWPORT NEWS   MOSUNNY   92  72  51 SW9       29.85F HX  99
LANGLEY AFB    PTSUNNY   90  72  56 VRB3      29.85F HX  97
FORT EUSTIS    MOSUNNY   92  70  48 S5        29.84S HX  98
WILLIAMSBURG*  MOSUNNY   93  75  55 S5        29.86F HX 104
HR EXEC AP*    FAIR      90  72  55 CALM      29.87S HX  96
FRANKLIN*      MOSUNNY   91  72  53 SW5       29.86S HX  98
WAKEFIELD      MOSUNNY   90  73  57 S3        29.86S HX  98
$$

VAZ020-022-025-037-045-302300-
WEST CENTRAL AND SOUTHWEST VIRGINIA

CITY           SKY/WX    TMP DP  RH WIND       PRES   REMARKS
STAUNTON*      PTSUNNY   83  70  66 CALM      29.93R THUNDER
WAYNESBORO*    CLOUDY    78  71  81 E3        29.93R
HOT SPRINGS VA PTSUNNY   76  62  62 NW15G21   30.08R
LYNCHBURG      MOSUNNY   88  73  61 S6        29.90F HX  95
DANVILLE       SUNNY     87  77  72 S3        29.88F HX  99
SOUTH BOSTON*  FAIR      88  76  67 CALM      29.87F HX  98
MARTINSVILLE   MOSUNNY   94  67  41 N3        29.92S HX  98
ROANOKE        PTSUNNY   91  66  43 NW15      29.93S
BLACKSBURG     PTSUNNY   83  70  65 NW6       30.02S
DUBLIN*          N/A     84  70  62 NW5       30.02S
MARION*        MOSUNNY   82  67  60 NW8       30.07S
HILLSVILLE*    SUNNY     84  67  55 NW13      30.03S
RICHLANDS*     FAIR      79  68  69 NW8       30.08S
WISE*          MOSUNNY   81  64  57 NW8       30.11S
ABINGDON*      MOSUNNY   84  64  50 N9        30.03S
$$

MDZ021>025-VAZ099-100-302300-
SOUTHERN MARYLAND AND THE DELMARVA PENINSULA

CITY           SKY/WX    TMP DP  RH WIND       PRES   REMARKS
PATUXENT RIVER TSTM      77  74  90 N3        29.87S
BAY BRIDGE APT   N/A     79  75  89 S6        29.84F
LEONARDTOWN    CLOUDY    73  72  94 CALM      29.89F
DOVER          CLOUDY    78  78 100 SW9       29.83F
GEORGETOWN     CLOUDY    86  70  58 SW7       29.86S
EASTON         LGT RAIN  77  77 100 SW6       29.89F
CAMBRIDGE      CLOUDY    77  73  88 S7        29.87F
SALISBURY      PTSUNNY   84  76  76 S7        29.86F
OCEAN CITY     PTSUNNY   83  74  74 SW13      29.86F
WALLOPS ISLAND MOSUNNY   82  77  84 S14       29.87F
ACCOMACK*      MOSUNNY   84  77  79 S8        29.87F
$$

NCZ012>017-030>032-302300-
NORTH CENTRAL AND EASTERN NORTH CAROLINA

CITY           SKY/WX    TMP DP  RH WIND       PRES   REMARKS
ROANOKE RAPIDS FAIR      90  72  55 S5        29.85F HX  96
RALEIGH        PTSUNNY   87  73  62 N6        29.87F
ELIZABETH CITY MOSUNNY   87  77  72 S8        29.88S HX  99
AHOSKIE*       CLOUDY    90  72  56 SE5       29.86S HX  97
EDENTON*         N/A     89  76  64 S8        29.87S HX 100
CURRITUCK*     SUNNY     89  72  57 S5        29.88S HX  96
KILL DEVIL HLS SUNNY     88  75  65 S6        29.88S HX  98
MANTEO         PTSUNNY   86  77  75 S15       29.89F HX  97
CAPE HATTERAS  SUNNY     85  74  69 S12       29.90F
TARBORO*         N/A     93  69  45 CALM      29.85F HX  98
GOLDSBORO      NOT AVBL
WASHINGTON     SUNNY     88  76  66 SE6       29.87S HX  99
GREENVILLE     LGT RAIN  91  75  59 S8        29.88S HX 102
NEW BERN       SUNNY     89  72  56 SE8       29.88S HX  96
WILMINGTON     SUNNY     88  74  63 SE8       29.86S HX  96
$$

VAZ048-302300-
ELSEWHERE

CITY           SKY/WX    TMP DP  RH WIND       PRES   REMARKS
HARRISBURG PA  PTSUNNY   85  65  51 NW10      29.83R
BALTIMORE      PTSUNNY   83  75  77 SW6       29.84F
ANNAPOLIS      CLOUDY    81  73  76 VRB7      29.84F
ANDREWS AFB    PTSUNNY   80  74  82 SW5       29.85F
PHILADELPHIA   CLOUDY    79  74  84 SW8       29.83F
HENDERSON NC   PTSUNNY   88  70  54 NW3       29.88F
GREENSBORO     PTSUNNY   91  69  48 CALM      29.89F HX  96
ROCKY MOUNT    PTSUNNY   93  70  46 S7        29.85F HX  99
$$

VAZ100-302300-
MARINE

STATION/POSITION TIME  TEMP    WIND        PRES    WAVE   SWELL
                       AIR SEA DIR/SP/G            HT/PER HT/PER
                 (UTC) (F)     (DEG/KT/KT) (MB)    (FT/S) (FT/S)
BRANDYWINE LGT   2100   78 78  190/ 17/ 19 1010.9F
CAPE MAY NJ      2100   79 80  170/ 11/ 14 1010.5F
LEWES DE         2100   85 73  170/  5/  7 1010.8F
15NM E FENWICK I 2150   80 80  200/ 14/ 16 1011.4F   3/10   2/10
OCEAN-CITY-INLET 2100   78 82  200/  8/ 11 1011.0R
WACHAPREAGUE VA  2100   84 88  190/ 11/ 13 1011.9S
THOMAS POINT MD  2200   78 81  220/  9/ 10 1011.3
GOOSES REEF MD   2200   79 82  250/  6/ 10 1012.1F
COVE POINT MD    2100   78     360/ 14/ 17 1012.2R
SOLOMONS ISLAND  2100      83                N/A
BISHOPS HEAD MD  2100   85 86  190/ 12/ 15 1010.5R
PINEY POINT MD   2100          350/ 30/ 32   N/A
POTOMAC MD       2200   82 84  340/ 14/ 17 1010.0F   1/ 3
CAMBRIDGE MD     2100   78 83  300/ 11/ 17 1011.2R
LEWISETTA VA     2100   88 86  220/  8/ 10 1010.8R
RAPPAHANNOCK LGT 2100          170/ 10/ 11 1012.0R
STINGRAY PT      2200   84 84  170/ 10/ 12 1011.2F   2/ 3
YORK RVR RNG VA  2100   83     140/ 13/ 14 1010.6F
YORKTOWN VA      2100   86 86  100/  7/ 10 1010.8F
JAMESTOWN VA     2200   89 87  190/  6/  8   N/A
DOMINION TERM VA 2100   87     100/  4/  5 1011.0F
KIPTOPEKE VA     2100      85  160/ 10/ 13   N/A
CHES BAY BRIDGE  2100   89 81  180/  4/  9 1010.7F
CAPE HENRY VA    2100   84     140/ 14/ 15   N/A
CHESAPEAKE LGHT  2100   82     170/ 16/ 16 1012.0F
WILLOUBY STN VA  2100   85     360/  3/  4 1012.1F
CAPE HENRY BUOY  2128      81                N/A     3/ 8
1ST LANDING BUOY 2200      83              1010.6F   2/ 3
CAPE CHARLES BUO 2126      81                N/A     2/ 9   2/ 9
OFFSHORE WE BUOY 2111      83                N/A     3/ 8   2/ 8
64NM E OF VA BCH 2150   82 82  190/ 14/ 17 1012.1R   3/ 5   2/ 8
DUCK PIER NC     2100   86 67  180/ 12/ 15 1011.0F
44100 DUCK FRF   2124      81                N/A     3/10
44056 DUCK FRF   2111      74                N/A     2/ 9
OREGON INLET NC  2100   84 86  190/ 17/ 21 1012.4F
HATTERAS NC      2100   85 84  170/  9/ 12 1012.4F
DIAMOND SHLS NC  2150   83 86  160/ 17/ 21 1012.3F   4/ 7   2/10


USA.gov is the U.S. government's official web portal to all federal, state and local government web resources and services.